Regional Weather Roundup
Issued by NWS Newport/Morehead, NC

Current Version | Previous Version | Graphics & Text | Print | Product List | Glossary On
Versions: 1 2 3 4 5 6 7 8 9 10 11 12 13 14 15 16 17 18 19 20 21 22 23 24 25 26 27 28 29 30 31 32 33 34 35 36 37 38 39 40 41 42 43 44 45 46 47 48 49 50
000
ASUS42 KMHX 171625
RWRMHX
WEATHER ROUNDUP FOR EASTERN NORTH CAROLINA
NATIONAL WEATHER SERVICE NEWPORT/MOREHEAD CITY NC
1100 AM EST TUE JAN 17 2017

NOTE: "FAIR" INDICATES FEW OR NO CLOUDS BELOW 12,000 FEET
WITH NO SIGNIFICANT WEATHER AND/OR OBSTRUCTIONS TO VISIBILITY

NCZ015>017-031-032-045>047-102-103-171700-
NORTH COAST

CITY           SKY/WX    TMP DP  RH WIND       PRES   REMARKS
EDENTON        CLOUDY    52  48  86 CALM      30.26F
ELIZABETH CITY MOSUNNY   52  47  83 S7        30.25F
KITTY HAWK     NOT AVBL
MANTEO         CLOUDY    55  49  82 W3        30.26F

$$

NCZ045>047-081-094-103-104-171700-
CENTRAL COAST

CITY           SKY/WX    TMP DP  RH WIND       PRES   REMARKS
FRISCO         PTSUNNY   54  46  74 VRB3      30.27S

$$

NCZ095-097-098-100-101-171700-
SOUTHERN COAST

CITY           SKY/WX    TMP DP  RH WIND       PRES   REMARKS
BEAUFORT       PTSUNNY   64  55  72 SE5       30.25F
CEDAR ISLAND   NOT AVBL
JACKSONVILLE   CLOUDY    58  52  80 CALM      30.26F
PINEY ISLAND   MOSUNNY  N/A N/A N/A E6        30.26F
WILMINGTON     CLOUDY    63  54  72 CALM      30.26F


$$

NCZ011>013-027>030-043-044-078>080-089-090>093-098-171700-
COASTAL PLAIN

CITY           SKY/WX    TMP DP  RH WIND       PRES   REMARKS
AHOSKIE          N/A     52  47  85 S3        30.24F
CLINTON        CLOUDY    51  51 100 CALM      30.29R FOG
ELIZABETHTOWN  CLOUDY    52  52 100 CALM      30.28S FOG
GOLDSBORO      NOT AVBL
GREENVILLE     NOT AVBL
HAVELOCK       MOSUNNY   62  50  64 N5        30.26F
KENANSVILLE    CLOUDY    54  48  82 CALM      30.27F
KINSTON        CLOUDY    54  46  76 CALM      30.27F
NEW BERN       CLOUDY    57  47  69 CALM      30.28F
RICHLANDS      CLOUDY    56  51  84 CALM      30.27F
ROCKY MOUNT    CLOUDY    54  52  93 SW8       30.25F
WASHINGTON     CLOUDY    55  47  73 CALM      30.26F
WHITEVILLE     CLOUDY    53  52  97 CALM      30.28F FOG

$$

AMZ130-135-150-152-154-156-158-170-250-252-270-ANZ085-086-088-633-658-670-171700-
MARINE OBSERVATIONS

STATION/POSITION TIME  TEMP    WIND        PRES    WAVE   SWELL
                       AIR SEA DIR/SP/G            HT/PER HT/PER
                 (UTC) (F)     (DEG/KT/KT) (MB)    (FT/S) (FT/S)
CHESAPEAKE LIGHT NOT AVBL
64 E VA BEACH    1550   53 56  290/  4/  6 1024.7    2/ 8   2/ 8
DUCK             1600   50 44  210/  3/  5 1023.9
2 E DUCK         1600      45                N/A     2/10
OREGON INLET     1600   56 49  300/  3/  4 1024.6
13E OREGON INLT  NOT AVBL
HATTERAS CG      1600   48 52   10/  5/  6 1024.4
DIAMOND BUOY     1550   60 73  350/  4/  6 1024.9    2/ 8   2/ 8
CAPE LOOKOUT     1600   59      30/  4/  6 1024.1
BEAUFORT LAB     1600   62 49   CALM  /  1 1023.4
30 SE NEW RVR IN 1608   61 62   70/  2/  6 1024.2
30 SE NEW RVR IN 1613      62                N/A     2/ 8
27 SE WRIGHTSVLE 1608   70 69  160/  4/  6 1024.0
5 SE WRIGHTSVLE  1608   53      10/  6/  8 1024.4
225 S CAPE HAT   1550   72 72  200/ 14/ 16 1025.9    3/ 8   2/ 8
41 SE CHARLESTON 1550   69 70  320/  2/  2 1024.8    3/ 8   3/ 8

$$




USA.gov is the U.S. government's official web portal to all federal, state and local government web resources and services.